Platteville, WI

2:41 AM CST on December 14, 2017 (GMT -0600)
Platteville Municipal

Weather History for KPVB - January, 2014

Change the Weather History Date:

Sunday, January 26, 2014

  Actual Average (KDBQ) Record (KDBQ)
Temperature  
Mean Temperature 13 °F -  
Max Temperature 26 °F 24 °F 58 °F (1944)
Min Temperature 0 °F 8 °F -20 °F (1904)
Degree Days  
Heating Degree Days 52    
Moisture  
Dew Point 8 °F    
Average Humidity 79    
Maximum Humidity 88    
Minimum Humidity 64    
Precipitation  
Precipitation 0.00 in - - ()
Sea Level Pressure  
Sea Level Pressure 29.53 in    
Wind  
Wind Speed 15 mph (WSW)    
Max Wind Speed 31 mph    
Max Gust Speed 41 mph    
Visibility 4 miles    
Events      
Averages and records for this station are not official NWS values.
T = Trace of Precipitation, MM = Missing Value Source: NWS Daily Summary

Daily Weather History Graph

Daily Weather History Graph

Search for Another Location

Airport or City:

Trip Planner

Search our weather history database for the weather conditions in past years. The results will help you decide how hot, cold, wet, or windy it might be!

Date:

Astronomy

Jan. 26, 2014 Rise Set
Actual Time 7:21 AM CST 5:07 PM CST
Civil Twilight 6:51 AM CST 5:37 PM CST
Nautical Twilight 6:17 AM CST 6:11 PM CST
Astronomical Twilight 5:43 AM CST 6:45 PM CST
Moon 2:59 AM CST (1/26) 12:56 PM CST (1/26)
Length of Visible Light 10h 46m
Length of Day
9h 45m
Waning Crescent, 23% of the Moon is Illuminated
Jan 26
Waning Crescent
Jan 30
New
Feb 6
First Quarter
Feb 14
Full
Feb 22
Last Quarter

Hourly Weather History & Observations

Time (CST) Temp. Windchill Dew Point Humidity Pressure Visibility Wind Dir Wind Speed Gust Speed Precip Events Conditions
12:15 AM 6.3 °F -8.4 °F 0.3 °F 77% 29.64 in 1.8 mi SSE 10.4 mph - N/A   Mostly Cloudy
12:35 AM 6.3 °F -9.2 °F 1.6 °F 81% 29.62 in 1.2 mi SE 11.5 mph - N/A   Overcast
12:55 AM 6.6 °F -8.8 °F 2.3 °F 82% 29.62 in 0.8 mi SSE 11.5 mph - N/A   Overcast
1:15 AM 6.8 °F -5.9 °F 2.8 °F 84% 29.62 in 0.8 mi SSE 8.1 mph - N/A   Overcast
1:35 AM 6.8 °F -6.9 °F 3.0 °F 84% 29.60 in 0.8 mi SSE 9.2 mph - N/A   Overcast
1:55 AM 6.8 °F -6.9 °F 3.2 °F 85% 29.58 in 1.0 mi SSE 9.2 mph - N/A   Overcast
2:15 AM 6.8 °F -7.8 °F 3.2 °F 85% 29.55 in 1.2 mi ESE 10.4 mph - N/A   Overcast
2:35 AM 7.2 °F -8.9 °F 3.2 °F 84% 29.53 in 2.0 mi ESE 12.7 mph - N/A   Overcast
2:55 AM 7.3 °F -7.1 °F 3.6 °F 85% 29.51 in 1.2 mi ESE 10.4 mph - N/A   Overcast
3:15 AM 7.7 °F -7.4 °F 3.9 °F 85% 29.49 in 1.8 mi SE 11.5 mph - N/A   Overcast
3:35 AM 8.2 °F -6.0 °F 4.5 °F 85% 29.49 in 3.0 mi SE 10.4 mph - N/A   Overcast
3:55 AM 8.6 °F -7.0 °F 5.0 °F 85% 29.46 in 4.0 mi ESE 12.7 mph - N/A   Overcast
4:15 AM 9.1 °F -7.0 °F 5.4 °F 85% 29.44 in 10.0 mi ESE 13.8 mph - N/A   Overcast
4:35 AM 9.5 °F -7.8 °F 5.5 °F 84% 29.42 in 10.0 mi ESE 16.1 mph 19.6 mph N/A   Overcast
4:55 AM 10.0 °F -5.2 °F 5.9 °F 83% 29.42 in 10.0 mi SE 12.7 mph - N/A   Overcast
5:15 AM 10.2 °F -5.0 °F 5.9 °F 83% 29.40 in 10.0 mi SE 12.7 mph - N/A   Overcast
5:35 AM 10.6 °F -3.8 °F 6.6 °F 84% 29.40 in 10.0 mi SE 11.5 mph - N/A   Overcast
5:55 AM 11.3 °F -2.2 °F 7.3 °F 84% 29.40 in 10.0 mi SE 10.4 mph - N/A   Overcast
6:15 AM 11.7 °F 0.0 °F 7.5 °F 83% 29.40 in 10.0 mi SE 8.1 mph - N/A   Overcast
6:35 AM 11.8 °F -0.7 °F 7.7 °F 83% 29.39 in 10.0 mi SE 9.2 mph - N/A   Overcast
6:55 AM 12.0 °F 2.7 °F 8.1 °F 84% 29.39 in 10.0 mi SSE 5.8 mph - N/A   Overcast
7:15 AM 12.2 °F 2.9 °F 8.4 °F 85% 29.37 in 10.0 mi SE 5.8 mph - N/A   Overcast
7:35 AM 12.6 °F 4.8 °F 8.6 °F 84% 29.38 in 10.0 mi SSE 4.6 mph - N/A   Overcast
7:55 AM 13.1 °F 4.0 °F 8.8 °F 83% 29.40 in 10.0 mi SSW 5.8 mph - N/A   Overcast
8:15 AM 13.5 °F 3.3 °F 9.5 °F 84% 29.39 in 10.0 mi SSW 6.9 mph - N/A   Overcast
8:35 AM 14.0 °F - 10.0 °F 84% 29.37 in 10.0 mi Calm Calm - N/A   Overcast
8:55 AM 15.3 °F 3.5 °F 11.1 °F 84% 29.39 in 10.0 mi West 9.2 mph - N/A   Overcast
9:15 AM 17.6 °F 3.7 °F 13.1 °F 83% 29.40 in 10.0 mi West 13.8 mph - N/A   Overcast
9:35 AM 18.9 °F 5.9 °F 14.4 °F 83% 29.40 in 10.0 mi West 12.7 mph 17.3 mph N/A   Overcast
9:55 AM 20.3 °F 6.1 °F 15.6 °F 82% 29.42 in 10.0 mi West 16.1 mph - N/A   Overcast
10:15 AM 21.7 °F 10.8 °F 16.7 °F 81% 29.40 in 10.0 mi West 10.4 mph - N/A   Overcast
10:35 AM 23.2 °F 9.8 °F 18.0 °F 80% 29.41 in 10.0 mi West 16.1 mph 20.7 mph N/A   Mostly Cloudy
10:55 AM 25.7 °F 10.5 °F 19.4 °F 77% 29.40 in 2.5 mi West 24.2 mph 32.2 mph N/A   Scattered Clouds
11:15 AM 26.1 °F 13.1 °F 19.8 °F 77% 29.40 in 7.0 mi West 17.3 mph 29.9 mph N/A   Clear
11:35 AM 26.4 °F 12.5 °F 19.4 °F 75% 29.40 in 7.0 mi West 20.7 mph 28.8 mph N/A   Clear
11:55 AM 26.2 °F 11.5 °F 18.7 °F 73% 29.41 in 2.5 mi West 23.0 mph 31.1 mph N/A   Clear
12:15 PM 25.7 °F 9.1 °F 19.2 °F 76% 29.41 in 1.2 mi West 29.9 mph 39.1 mph N/A   Unknown
12:35 PM 26.2 °F 10.6 °F 19.0 °F 74% 29.41 in 4.0 mi West 26.5 mph 32.2 mph N/A   Clear
12:55 PM 25.7 °F 10.2 °F 18.3 °F 74% 29.40 in 5.0 mi West 25.3 mph 31.1 mph N/A   Clear
1:15 PM 24.8 °F 9.3 °F 18.1 °F 76% 29.43 in 1.8 mi West 24.2 mph 35.7 mph N/A   Unknown
1:35 PM 24.6 °F 9.1 °F 18.1 °F 76% 29.42 in 1.8 mi West 24.2 mph 38.0 mph N/A   Scattered Clouds
1:55 PM 24.8 °F 10.7 °F 18.0 °F 75% 29.43 in 4.0 mi West 19.6 mph 31.1 mph N/A   Scattered Clouds
2:15 PM 24.8 °F 10.7 °F 18.3 °F 76% 29.44 in 7.0 mi West 19.6 mph 26.5 mph N/A   Mostly Cloudy
2:35 PM 24.4 °F 7.6 °F 17.6 °F 75% 29.47 in 2.5 mi West 28.8 mph 38.0 mph N/A   Overcast
2:55 PM 23.9 °F 10.3 °F 17.2 °F 76% 29.45 in 7.0 mi West 17.3 mph 25.3 mph N/A   Overcast
3:15 PM 24.4 °F 7.1 °F 17.2 °F 74% 29.47 in 7.0 mi West 31.1 mph 39.1 mph N/A   Overcast
3:35 PM 23.5 °F 11.3 °F 16.5 °F 75% 29.47 in 7.0 mi West 13.8 mph - N/A   Overcast
3:55 PM 22.6 °F 7.1 °F 17.6 °F 81% 29.48 in 0.5 mi West 21.9 mph 36.8 mph N/A   Overcast
4:15 PM 21.7 °F 8.5 °F 18.1 °F 86% 29.49 in 0.2 mi West 15.0 mph 24.2 mph N/A   Overcast
4:35 PM 21.7 °F 9.0 °F 18.5 °F 87% 29.48 in 0.2 mi West 13.8 mph 20.7 mph N/A   Overcast
4:55 PM 21.2 °F 7.3 °F 18.1 °F 88% 29.49 in 0.2 mi WNW 16.1 mph 23.0 mph N/A   Overcast
5:15 PM 20.3 °F 1.7 °F 17.1 °F 87% 29.52 in 0.2 mi WNW 29.9 mph 40.3 mph N/A   Overcast
5:35 PM 19.2 °F 2.2 °F 14.0 °F 80% 29.55 in 1.0 mi WNW 23.0 mph 29.9 mph N/A   Overcast
5:55 PM 16.7 °F -2.5 °F 10.2 °F 76% 29.57 in 0.5 mi West 27.6 mph 39.1 mph N/A   Mostly Cloudy
6:15 PM 14.5 °F -5.8 °F 6.8 °F 71% 29.61 in 0.5 mi West 28.8 mph 39.1 mph N/A   Unknown
6:35 PM 13.1 °F -7.4 °F 3.4 °F 65% 29.63 in 2.5 mi WNW 27.6 mph 33.4 mph N/A   Clear
6:55 PM 11.3 °F -6.0 °F 1.4 °F 64% 29.64 in 1.2 mi West 17.3 mph 35.7 mph N/A   Unknown
7:15 PM 10.2 °F -11.9 °F 1.2 °F 67% 29.65 in 1.2 mi West 29.9 mph 36.8 mph N/A   Unknown
7:35 PM 7.3 °F -15.5 °F 0.5 °F 74% 29.67 in 0.8 mi West 28.8 mph 41.4 mph N/A   Unknown
7:55 PM 5.2 °F -18.1 °F -0.4 °F 78% 29.68 in 0.5 mi West 27.6 mph 41.4 mph N/A   Unknown
8:15 PM 4.6 °F -18.0 °F -1.3 °F 76% 29.70 in 0.8 mi West 25.3 mph 35.7 mph N/A   Unknown
8:35 PM 4.5 °F -16.9 °F -0.9 °F 78% 29.72 in 0.8 mi WNW 21.9 mph 36.8 mph N/A   Overcast
8:55 PM 3.6 °F -18.6 °F -2.7 °F 75% 29.75 in 0.8 mi WNW 23.0 mph 36.8 mph N/A   Mostly Cloudy
9:15 PM 3.0 °F -18.8 °F -3.6 °F 74% 29.78 in 1.2 mi WNW 21.9 mph 32.2 mph N/A   Scattered Clouds
9:35 PM 2.3 °F -19.3 °F -5.1 °F 71% 29.80 in 1.8 mi WNW 20.7 mph 32.2 mph N/A   Unknown
9:55 PM 1.8 °F -19.5 °F -4.9 °F 74% 29.82 in 2.5 mi WNW 19.6 mph 31.1 mph N/A   Clear
10:15 PM 1.4 °F -21.4 °F -5.3 °F 74% 29.84 in 2.0 mi WNW 23.0 mph 28.8 mph N/A   Clear
10:35 PM 0.9 °F -22.6 °F -6.5 °F 71% 29.86 in 3.0 mi WNW 24.2 mph 32.2 mph N/A   Clear
10:55 PM 0.5 °F -21.1 °F -7.6 °F 69% 29.88 in 4.0 mi WNW 19.6 mph 28.8 mph N/A   Clear
11:15 PM 0.1 °F -21.6 °F -7.6 °F 70% 29.89 in 4.0 mi WNW 19.6 mph 27.6 mph N/A   Clear
11:35 PM -0.4 °F -22.8 °F -7.2 °F 73% 29.91 in 4.0 mi WNW 20.7 mph 27.6 mph N/A   Clear
11:55 PM -0.4 °F -21.2 °F -7.4 °F 72% 29.93 in 3.0 mi WNW 17.3 mph 23.0 mph N/A   Clear